Observations for Trim Patrick St
| Time | AQI | Temp °C | Hum % | Pres Pa | CO μg/m³ | H₂S μg/m³ | NO μg/m³ | NO₂ μg/m³ | O₃ μg/m³ | SO₂ μg/m³ | PM1 μg/m³ | PM2.5 μg/m³ | PM10 μg/m³ |
|---|---|---|---|---|---|---|---|---|---|---|---|---|---|
| Friday 7 August 2026 | |||||||||||||
| 02:21 | 2 | 12.7 | 75 | 38,460 | 0.26 | 5.89 | 3.73 | 28.54 | 42.91 | 0 | 3.71 | 7.65 | 8.42 |
| 02:20 | 2 | 12.8 | 75 | 38,460 | 0.25 | 5.37 | 3.8 | 20.74 | 39.61 | 0 | 4.57 | 7.69 | 8.45 |
| 02:19 | 2 | 12.8 | 75 | 38,460 | 0.24 | 4.73 | 3.73 | 22.39 | 29.64 | 0 | 3.71 | 9.1 | 10.01 |
| 02:18 | 2 | 12.8 | 75 | 38,460 | 0.24 | 4.75 | 3.77 | 18.99 | 35.81 | 0 | 3.71 | 7.68 | 8.45 |
| 02:17 | 2 | 12.8 | 75 | 38,460 | 0.25 | 3.9 | 3.75 | 17.14 | 36.01 | 0 | 2.86 | 6.96 | 7.66 |
| 02:16 | 2 | 12.9 | 75 | 38,460 | 0.23 | 4.76 | 3.74 | 15.53 | 33.42 | 0 | 2.86 | 7.66 | 8.43 |
| 02:15 | 2 | 12.9 | 75 | 38,460 | 0.23 | 5.2 | 3.73 | 21.51 | 37.02 | 0 | 3.71 | 8.38 | 9.22 |
| 02:14 | 2 | 12.9 | 75 | 38,460 | 0.23 | 4.55 | 3.78 | 21.84 | 35.73 | 0 | 3.71 | 7.7 | 8.47 |
| 02:13 | 2 | 12.9 | 74 | 38,460 | 0.22 | 4.13 | 3.76 | 17.44 | 24.67 | 0 | 2.86 | 7.73 | 8.5 |
| 02:12 | 2 | 12.9 | 73 | 38,460 | 0.23 | 4.83 | 3.77 | 19.47 | 37.13 | 0 | 3.71 | 7.83 | 8.61 |
| 02:11 | 2 | 13 | 74 | 38,460 | 0.23 | 4.52 | 3.74 | 18.26 | 42.74 | 0 | 2.86 | 7.76 | 8.53 |
| 02:10 | 2 | 13 | 74 | 38,460 | 0.23 | 5.3 | 3.75 | 20.91 | 36.37 | 0 | 2.86 | 7.02 | 7.72 |
| 02:09 | 2 | 13 | 74 | 38,460 | 0.22 | 4.24 | 3.74 | 17.96 | 36.08 | 0 | 2.86 | 7.04 | 7.74 |
| 02:08 | 2 | 13 | 74 | 38,460 | 0.22 | 5.15 | 3.74 | 20.12 | 38.93 | 0 | 3.71 | 8.44 | 9.28 |
| 02:06 | 2 | 13.1 | 74 | 38,460 | 0.21 | 4.79 | 3.69 | 15.54 | 30.68 | 0 | 2.86 | 7.06 | 7.76 |
| 02:05 | 2 | 13.1 | 74 | 38,460 | 0.21 | 3.8 | 3.64 | 22.02 | 26.55 | 0 | 2.86 | 7.75 | 8.53 |
| 02:04 | 2 | 13.1 | 74 | 38,460 | 0.2 | 3.21 | 3.67 | 13.14 | 29 | 0 | 2 | 5.62 | 6.18 |
| 02:03 | 2 | 13.1 | 74 | 38,460 | 0.2 | 4.14 | 3.72 | 15.33 | 22.86 | 0 | 2.86 | 6.34 | 6.97 |
| 02:02 | 2 | 13.2 | 74 | 38,460 | 0.19 | 5.62 | 3.69 | 22.75 | 44.39 | 0 | 2.86 | 6.35 | 6.99 |
| 02:01 | 2 | 13.2 | 74 | 38,460 | 0.21 | 4.94 | 3.69 | 24.03 | 38.5 | 0 | 2.86 | 7.07 | 7.77 |